| time (UTC) | temp F | wind direction | speed MPH | gust MPH | rain 1hr in | rain 24hr in | rain mn in | humidity % | barometer mb |
| 20260504130531 | 52 | 195 | 9.0 | 16.0 | 0.00 | 0.00 | 0.00 | 50 | 1007.6 |
| 20260504110634 | 43 | 216 | 6.0 | 14.0 | 0.00 | 0.00 | 0.00 | 64 | 1008.0 |
| 20260504100527 | 39 | 251 | 3.0 | 7.0 | 0.00 | 0.00 | 0.00 | 71 | 1007.4 |
| 20260504100119 | 39 | 247 | 2.0 | 5.0 | 0.00 | 0.00 | 0.00 | 71 | 1007.4 |
| 20260504081531 | 39 | 252 | 2.0 | 3.0 | 0.00 | 0.00 | 0.00 | 71 | 1007.4 |
| 20260504081121 | 39 | 245 | 1.0 | 3.0 | 0.00 | 0.00 | 0.00 | 70 | 1007.4 |
| 20260504080609 | 40 | 243 | 1.0 | 3.0 | 0.00 | 0.00 | 0.00 | 69 | 1007.3 |
| 20260504070142 | 42 | 257 | 4.0 | 7.0 | 0.00 | 0.00 | 0.00 | 65 | 1007.1 |
| 20260504050556 | 40 | 235 | 3.0 | 7.0 | 0.00 | 0.00 | 0.00 | 67 | 1007.6 |
| 20260504050125 | 40 | 270 | 3.0 | 7.0 | 0.00 | 0.00 | 0.00 | 66 | 1007.6 |
| 20260504045607 | 39 | 280 | 2.0 | 5.0 | 0.00 | 0.00 | 0.00 | 66 | 1007.7 |
| 20260504045136 | 39 | 285 | 2.0 | 4.0 | 0.00 | 0.00 | 0.00 | 66 | 1007.7 |
| 20260504044531 | 39 | 289 | 2.0 | 4.0 | 0.00 | 0.00 | 0.00 | 66 | 1007.8 |
| 20260504044056 | 39 | 285 | 1.0 | 4.0 | 0.00 | 0.00 | 0.00 | 66 | 1007.8 |
| 20260504043604 | 39 | 291 | 2.0 | 4.0 | 0.00 | 0.00 | 0.00 | 65 | 1007.9 |
| 20260504043135 | 39 | 271 | 2.0 | 3.0 | 0.00 | 0.00 | 0.00 | 65 | 1007.9 |
| 20260504042552 | 39 | 273 | 2.0 | 3.0 | 0.00 | 0.00 | 0.00 | 65 | 1007.9 |
| 20260504042025 | 39 | 265 | 1.0 | 3.0 | 0.00 | 0.00 | 0.00 | 64 | 1007.8 |
| 20260504041613 | 39 | 259 | 1.0 | 2.0 | 0.00 | 0.00 | 0.00 | 64 | 1007.8 |
| 20260504041046 | 40 | 250 | 1.0 | 3.0 | 0.00 | 0.00 | 0.00 | 63 | 1007.8 |
| 20260504040542 | 40 | 251 | 1.0 | 3.0 | 0.00 | 0.00 | 0.00 | 63 | 1007.7 |
| 20260504040041 | 40 | 240 | 1.0 | 3.0 | 0.00 | 0.00 | 0.00 | 63 | 1007.7 |
| 20260504035534 | 40 | 249 | 1.0 | 3.0 | 0.00 | 0.00 | 0.00 | 63 | 1007.7 |
| 20260504035030 | 40 | 250 | 1.0 | 2.0 | 0.00 | 0.00 | 0.00 | 62 | 1007.8 |
| 20260504034553 | 40 | 235 | 1.0 | 4.0 | 0.00 | 0.00 | 0.00 | 62 | 1007.6 |
| 20260504034025 | 40 | 237 | 2.0 | 4.0 | 0.00 | 0.00 | 0.00 | 62 | 1007.5 |
| 20260504033548 | 40 | 226 | 2.0 | 3.0 | 0.00 | 0.00 | 0.00 | 61 | 1007.7 |
| 20260504033053 | 40 | 228 | 1.0 | 3.0 | 0.00 | 0.00 | 0.00 | 60 | 1007.6 |
| 20260504032526 | 41 | 237 | 0.0 | 3.0 | 0.00 | 0.00 | 0.00 | 60 | 1007.7 |
| 20260504032048 | 41 | 256 | 1.0 | 5.0 | 0.00 | 0.00 | 0.00 | 59 | 1007.6 |
| 20260504031551 | 41 | 263 | 2.0 | 5.0 | 0.00 | 0.00 | 0.00 | 59 | 1007.5 |
| 20260504031046 | 41 | 272 | 2.0 | 8.0 | 0.00 | 0.00 | 0.00 | 58 | 1007.3 |
| 20260504030542 | 41 | 229 | 2.0 | 8.0 | 0.00 | 0.00 | 0.00 | 58 | 1007.2 |
| 20260504030039 | 42 | 258 | 2.0 | 8.0 | 0.00 | 0.00 | 0.00 | 58 | 1007.3 |
| 20260504025604 | 42 | 271 | 3.0 | 10.0 | 0.00 | 0.00 | 0.00 | 58 | 1007.2 |
| 20260504025038 | 42 | 279 | 4.0 | 9.0 | 0.00 | 0.00 | 0.00 | 58 | 1007.3 |
| 20260504024607 | 42 | 270 | 3.0 | 8.0 | 0.00 | 0.00 | 0.00 | 57 | 1007.3 |
| 20260504024040 | 42 | 241 | 2.0 | 11.0 | 0.00 | 0.00 | 0.00 | 57 | 1007.3 |
| 20260504023536 | 42 | 239 | 5.0 | 11.0 | 0.00 | 0.00 | 0.00 | 56 | 1007.2 |
| 20260504023033 | 42 | 280 | 5.0 | 10.0 | 0.00 | 0.00 | 0.00 | 56 | 1007.3 |
| 20260504022623 | 43 | 302 | 4.0 | 10.0 | 0.00 | 0.00 | 0.00 | 56 | 1007.3 |
| 20260504022037 | 43 | 250 | 6.0 | 15.0 | 0.00 | 0.00 | 0.00 | 55 | 1007.4 |
| 20260504021531 | 43 | 289 | 7.0 | 15.0 | 0.00 | 0.00 | 0.00 | 55 | 1007.5 |
| 20260504021050 | 43 | 291 | 4.0 | 15.0 | 0.00 | 0.00 | 0.00 | 55 | 1007.4 |
| 20260504020619 | 43 | 301 | 8.0 | 15.0 | 0.00 | 0.00 | 0.00 | 54 | 1007.3 |
| 20260504020043 | 43 | 285 | 5.0 | 16.0 | 0.00 | 0.00 | 0.00 | 53 | 1007.3 |
| 20260504015535 | 43 | 239 | 10.0 | 16.0 | 0.00 | 0.00 | 0.00 | 53 | 1007.2 |
| 20260504015029 | 43 | 280 | 7.0 | 14.0 | 0.00 | 0.00 | 0.00 | 53 | 1007.0 |
| 20260504014600 | 43 | 298 | 6.0 | 16.0 | 0.00 | 0.00 | 0.00 | 52 | 1007.0 |
| 20260504014127 | 43 | 290 | 11.0 | 16.0 | 0.00 | 0.00 | 0.00 | 52 | 1006.9 |
| 20260504013535 | 44 | 297 | 9.0 | 15.0 | 0.00 | 0.00 | 0.00 | 52 | 1007.0 |
| 20260504013033 | 44 | 291 | 8.0 | 14.0 | 0.00 | 0.00 | 0.00 | 51 | 1007.0 |
| 20260504012600 | 44 | 285 | 7.0 | 25.0 | 0.00 | 0.00 | 0.00 | 51 | 1007.0 |
| 20260504012126 | 44 | 339 | 8.0 | 25.0 | 0.00 | 0.00 | 0.00 | 50 | 1007.0 |
| 20260504011654 | 44 | 283 | 10.0 | 16.0 | 0.00 | 0.00 | 0.00 | 50 | 1007.0 |
| 20260504011046 | 44 | 256 | 9.0 | 17.0 | 0.00 | 0.00 | 0.00 | 50 | 1006.9 |
| 20260504010542 | 43 | 301 | 9.0 | 17.0 | 0.00 | 0.00 | 0.00 | 49 | 1006.9 |
| 20260504010036 | 43 | 239 | 7.0 | 15.0 | 0.00 | 0.00 | 0.00 | 48 | 1006.7 |
| 20260504005531 | 43 | 246 | 8.0 | 18.0 | 0.00 | 0.00 | 0.00 | 47 | 1006.6 |
| 20260504005100 | 44 | 276 | 10.0 | 18.0 | 0.00 | 0.00 | 0.00 | 46 | 1006.8 |
| 20260504004536 | 44 | 267 | 5.0 | 19.0 | 0.00 | 0.00 | 0.00 | 46 | 1006.5 |
| 20260504004126 | 44 | 319 | 9.0 | 17.0 | 0.00 | 0.00 | 0.00 | 46 | 1006.4 |
| 20260504003539 | 43 | 280 | 7.0 | 21.0 | 0.00 | 0.00 | 0.00 | 45 | 1006.4 |
| 20260504003036 | 44 | 282 | 10.0 | 21.0 | 0.00 | 0.00 | 0.00 | 45 | 1006.3 |
| 20260504002532 | 43 | 294 | 6.0 | 12.0 | 0.00 | 0.00 | 0.00 | 44 | 1006.3 |
| 20260504002029 | 44 | 272 | 6.0 | 10.0 | 0.00 | 0.00 | 0.00 | 44 | 1006.2 |
| 20260504001526 | 44 | 283 | 5.0 | 12.0 | 0.00 | 0.00 | 0.00 | 43 | 1006.1 |
| 20260504001045 | 44 | 277 | 6.0 | 13.0 | 0.00 | 0.00 | 0.00 | 42 | 1006.0 |
| 20260504000540 | 44 | 235 | 6.0 | 15.0 | 0.00 | 0.00 | 0.00 | 41 | 1006.0 |
| 20260504000131 | 44 | 251 | 5.0 | 15.0 | 0.00 | 0.00 | 0.00 | 41 | 1005.9 |
| 20260503235533 | 44 | 309 | 6.0 | 15.0 | 0.00 | 0.00 | 0.00 | 40 | 1005.9 |
| 20260503235058 | 44 | 258 | 8.0 | 15.0 | 0.00 | 0.00 | 0.00 | 40 | 1005.8 |
| 20260503234533 | 44 | 278 | 6.0 | 15.0 | 0.00 | 0.00 | 0.00 | 39 | 1005.7 |
| 20260503234028 | 45 | 328 | 6.0 | 20.0 | 0.00 | 0.00 | 0.00 | 39 | 1005.7 |
| 20260503233524 | 45 | 287 | 6.0 | 20.0 | 0.00 | 0.00 | 0.00 | 38 | 1005.6 |
| 20260503233112 | 45 | 257 | 9.0 | 20.0 | 0.00 | 0.00 | 0.00 | 37 | 1005.6 |
| 20260503232546 | 46 | 295 | 13.0 | 20.0 | 0.00 | 0.00 | 0.00 | 36 | 1005.7 |
| 20260503232043 | 46 | 293 | 9.0 | 20.0 | 0.00 | 0.00 | 0.00 | 35 | 1005.5 |
| 20260503231538 | 46 | 218 | 9.0 | 16.0 | 0.00 | 0.00 | 0.00 | 35 | 1005.6 |
| 20260503231036 | 46 | 287 | 8.0 | 17.0 | 0.00 | 0.00 | 0.00 | 34 | 1005.6 |
| 20260503230628 | 46 | 241 | 11.0 | 19.0 | 0.00 | 0.00 | 0.00 | 34 | 1005.7 |
| 20260503230040 | 46 | 258 | 11.0 | 19.0 | 0.00 | 0.00 | 0.00 | 33 | 1005.5 |
| 20260503225528 | 47 | 284 | 8.0 | 19.0 | 0.00 | 0.00 | 0.00 | 35 | 1005.5 |
| 20260503225025 | 47 | 222 | 11.0 | 20.0 | 0.00 | 0.00 | 0.00 | 34 | 1005.5 |
| 20260503224546 | 47 | 277 | 8.0 | 20.0 | 0.00 | 0.00 | 0.00 | 35 | 1005.4 |
| 20260503224041 | 47 | 316 | 9.0 | 20.0 | 0.00 | 0.00 | 0.00 | 35 | 1005.4 |
| 20260503223631 | 47 | 312 | 11.0 | 20.0 | 0.00 | 0.00 | 0.00 | 36 | 1005.4 |
| 20260503223045 | 47 | 232 | 8.0 | 18.0 | 0.00 | 0.00 | 0.00 | 36 | 1005.3 |
| 20260503222539 | 47 | 241 | 9.0 | 16.0 | 0.00 | 0.00 | 0.00 | 38 | 1005.4 |
| 20260503222034 | 47 | 293 | 5.0 | 17.0 | 0.00 | 0.00 | 0.00 | 40 | 1005.3 |
| 20260503221531 | 47 | 276 | 6.0 | 18.0 | 0.00 | 0.00 | 0.00 | 41 | 1005.3 |
| 20260503221029 | 46 | 270 | 9.0 | 18.0 | 0.00 | 0.00 | 0.00 | 41 | 1005.4 |
| 20260503220526 | 47 | 210 | 10.0 | 21.0 | 0.00 | 0.00 | 0.00 | 40 | 1005.5 |
| 20260503220133 | 46 | 268 | 11.0 | 21.0 | 0.00 | 0.00 | 0.00 | 41 | 1005.5 |
| 20260503215546 | 47 | 316 | 12.0 | 21.0 | 0.00 | 0.00 | 0.00 | 40 | 1005.5 |
| 20260503215155 | 47 | 218 | 9.0 | 17.0 | 0.00 | 0.00 | 0.00 | 43 | 1005.7 |
| 20260503214548 | 46 | 298 | 4.0 | 23.0 | 0.00 | 0.00 | 0.00 | 43 | 1005.5 |
| 20260503214145 | 46 | 320 | 7.0 | 23.0 | 0.00 | 0.00 | 0.00 | 43 | 1005.5 |
| 20260503213536 | 45 | 293 | 8.0 | 18.0 | 0.00 | 0.00 | 0.00 | 44 | 1005.5 |
| 20260503213122 | 45 | 270 | 7.0 | 16.0 | 0.00 | 0.00 | 0.00 | 45 | 1005.5 |
| 20260503212609 | 45 | 354 | 6.0 | 24.0 | 0.00 | 0.00 | 0.00 | 44 | 1005.4 |
| 20260503212051 | 45 | 354 | 12.0 | 24.0 | 0.00 | 0.00 | 0.00 | 44 | 1005.4 |
| 20260503211554 | 45 | 263 | 7.0 | 15.0 | 0.00 | 0.00 | 0.00 | 46 | 1005.5 |
| 20260503211029 | 44 | 284 | 7.0 | 24.0 | 0.00 | 0.00 | 0.00 | 47 | 1005.5 |
| 20260503210559 | 44 | 285 | 14.0 | 24.0 | 0.00 | 0.00 | 0.00 | 46 | 1005.5 |
| 20260503210126 | 44 | 271 | 13.0 | 23.0 | 0.00 | 0.00 | 0.00 | 45 | 1005.5 |
| 20260503205537 | 45 | 330 | 11.0 | 22.0 | 0.00 | 0.00 | 0.00 | 45 | 1005.4 |
| 20260503205106 | 44 | 283 | 8.0 | 18.0 | 0.00 | 0.00 | 0.00 | 48 | 1005.4 |
| 20260503204540 | 43 | 294 | 8.0 | 20.0 | 0.00 | 0.00 | 0.00 | 48 | 1005.5 |
| 20260503204109 | 44 | 314 | 8.0 | 20.0 | 0.00 | 0.00 | 0.00 | 49 | 1005.5 |
| 20260503203543 | 43 | 301 | 9.0 | 16.0 | 0.00 | 0.00 | 0.00 | 49 | 1005.5 |
| 20260503203040 | 43 | 235 | 8.0 | 18.0 | 0.00 | 0.00 | 0.00 | 49 | 1005.4 |
| 20260503202531 | 43 | 313 | 10.0 | 19.0 | 0.00 | 0.00 | 0.00 | 49 | 1005.4 |
| 20260503202136 | 43 | 199 | 11.0 | 21.0 | 0.00 | 0.00 | 0.00 | 50 | 1005.4 |
| 20260503201557 | 43 | 266 | 9.0 | 26.0 | 0.00 | 0.00 | 0.00 | 50 | 1005.5 |
| 20260503201031 | 43 | 297 | 14.0 | 26.0 | 0.00 | 0.00 | 0.00 | 48 | 1005.4 |
| 20260503200620 | 43 | 311 | 10.0 | 21.0 | 0.00 | 0.00 | 0.00 | 49 | 1005.4 |
| 20260503200036 | 43 | 312 | 12.0 | 21.0 | 0.00 | 0.00 | 0.00 | 49 | 1005.5 |
| 20260503195531 | 43 | 319 | 6.0 | 22.0 | 0.00 | 0.00 | 0.00 | 50 | 1005.5 |
| 20260503195100 | 43 | 280 | 13.0 | 26.0 | 0.00 | 0.00 | 0.00 | 49 | 1005.6 |
| 20260503194626 | 43 | 280 | 14.0 | 26.0 | 0.00 | 0.00 | 0.00 | 49 | 1005.6 |
| 20260503194039 | 44 | 282 | 11.0 | 20.0 | 0.00 | 0.00 | 0.00 | 49 | 1005.4 |
| 20260503193545 | 44 | 335 | 8.0 | 22.0 | 0.00 | 0.00 | 0.00 | 50 | 1005.6 |
| 20260503193041 | 43 | 249 | 14.0 | 22.0 | 0.00 | 0.00 | 0.00 | 49 | 1005.6 |
| 20260503192610 | 42 | 254 | 12.0 | 21.0 | 0.00 | 0.00 | 0.00 | 51 | 1005.6 |
| 20260503192025 | 43 | 305 | 12.0 | 22.0 | 0.00 | 0.00 | 0.00 | 51 | 1005.6 |
| 20260503191615 | 43 | 340 | 9.0 | 22.0 | 0.00 | 0.00 | 0.00 | 50 | 1005.7 |
| 20260503191119 | 43 | 293 | 11.0 | 21.0 | 0.00 | 0.00 | 0.00 | 51 | 1005.5 |
| 20260503190608 | 43 | 293 | 9.0 | 21.0 | 0.00 | 0.00 | 0.00 | 51 | 1005.6 |
| 20260503190525 | 43 | 293 | 9.0 | 21.0 | 0.00 | 0.00 | 0.00 | 51 | 1005.6 |
| 20260503190052 | 43 | 14 | 12.0 | 21.0 | 0.00 | 0.00 | 0.00 | 49 | 1005.5 |
| 20260503185559 | 44 | 354 | 9.0 | 26.0 | 0.00 | 0.00 | 0.00 | 49 | 1005.4 |
| 20260503185033 | 44 | 314 | 11.0 | 26.0 | 0.00 | 0.00 | 0.00 | 49 | 1005.5 |
| 20260503184603 | 43 | 324 | 9.0 | 24.0 | 0.00 | 0.00 | 0.00 | 50 | 1005.6 |
| 20260503184128 | 43 | 251 | 11.0 | 23.0 | 0.00 | 0.00 | 0.00 | 49 | 1005.6 |
| 20260503184025 | 43 | 251 | 11.0 | 23.0 | 0.00 | 0.00 | 0.00 | 49 | 1005.6 |
| 20260503183550 | 42 | 301 | 10.0 | 22.0 | 0.00 | 0.00 | 0.00 | 51 | 1005.6 |
| 20260503183026 | 43 | 268 | 9.0 | 27.0 | 0.00 | 0.00 | 0.00 | 50 | 1005.6 |
| 20260503182549 | 42 | 253 | 11.0 | 27.0 | 0.00 | 0.00 | 0.00 | 48 | 1005.5 |
| 20260503182118 | 43 | 342 | 14.0 | 27.0 | 0.00 | 0.00 | 0.00 | 47 | 1005.6 |
| 20260503181532 | 44 | 252 | 9.0 | 19.0 | 0.00 | 0.00 | 0.00 | 49 | 1005.6 |
| 20260503181028 | 43 | 282 | 11.0 | 25.0 | 0.00 | 0.00 | 0.00 | 51 | 1005.5 |
| 20260503180611 | 44 | 251 | 12.0 | 25.0 | 0.00 | 0.00 | 0.00 | 51 | 1005.5 |
| 20260503180055 | 43 | 244 | 12.0 | 21.0 | 0.00 | 0.00 | 0.00 | 51 | 1005.5 |
| 20260503175547 | 43 | 256 | 11.0 | 21.0 | 0.00 | 0.00 | 0.00 | 52 | 1005.5 |
| 20260503175044 | 42 | 292 | 9.0 | 21.0 | 0.00 | 0.00 | 0.00 | 52 | 1005.5 |
| 20260503174541 | 42 | 297 | 7.0 | 21.0 | 0.00 | 0.00 | 0.00 | 54 | 1005.5 |
| 20260503174037 | 42 | 231 | 12.0 | 22.0 | 0.00 | 0.00 | 0.00 | 52 | 1005.6 |
| 20260503173628 | 42 | 326 | 5.0 | 18.0 | 0.00 | 0.00 | 0.00 | 53 | 1005.4 |
| 20260503173030 | 42 | 294 | 7.0 | 24.0 | 0.00 | 0.00 | 0.00 | 54 | 1005.5 |
| 20260503172549 | 42 | 245 | 9.0 | 24.0 | 0.00 | 0.00 | 0.00 | 53 | 1005.4 |
| 20260503172052 | 41 | 328 | 7.0 | 20.0 | 0.00 | 0.00 | 0.00 | 54 | 1005.4 |
| 20260503171526 | 41 | 264 | 10.0 | 20.0 | 0.00 | 0.00 | 0.00 | 55 | 1005.5 |
| 20260503171051 | 40 | 285 | 12.0 | 20.0 | 0.00 | 0.00 | 0.00 | 56 | 1005.7 |
| 20260503170524 | 40 | 325 | 12.0 | 20.0 | 0.00 | 0.00 | 0.00 | 57 | 1005.7 |
| 20260503170117 | 40 | 280 | 9.0 | 19.0 | 0.00 | 0.00 | 0.00 | 58 | 1005.7 |
| 20260503150529 | 42 | 230 | 6.0 | 18.0 | 0.00 | 0.00 | 0.00 | 59 | 1005.6 |
| 20260503150120 | 42 | 354 | 11.0 | 20.0 | 0.00 | 0.00 | 0.00 | 60 | 1005.7 |
| 20260503140112 | 40 | 359 | 14.0 | 26.0 | 0.00 | 0.00 | 0.00 | 67 | 1005.6 |